Location: Ahausen
(50.4985°N, 8.2722°E)
Time: 11:30:13
(UTC+00:00)

CZ-4 R/B - Pass Details

Date: 18 September 2020
Orbit: 530 x 600 km, 97.7° (Epoch: 30 October)

Event Time Altitude Azimuth Distance (km) Brightness Sun altitude
Rises 18:44:48 0° 196° (SSW) 2,837 4.9 -12.0°
Reaches altitude 10° 18:47:16 10° 209° (SSW) 1,940 4.2 -12.4°
Maximum altitude 18:50:48 26° 266° (W) 1,202 3.9 -12.9°
Drops below altitude 10° 18:54:22 10° 323° (NW) 1,943 5.0 -13.5°
Sets 18:56:50 0° 337° (NNW) 2,843 5.6 -13.8°
